| time (UTC) | temp F | wind direction | speed MPH | gust MPH | rain 1hr in | rain 24hr in | rain mn in | humidity % | barometer mb |
| 20260508080505 | 50 | 241 | 12.0 | 14.0 | 0.00 | 0.00 | 0.00 | 1017.0 | |
| 20260508073505 | 49 | 231 | 12.0 | 15.0 | 0.00 | 0.00 | 0.00 | 1016.0 | |
| 20260508070505 | 49 | 231 | 12.0 | 15.0 | 0.00 | 0.00 | 0.00 | 1016.0 | |
| 20260508063505 | 49 | 228 | 12.0 | 15.0 | 0.00 | 0.00 | 0.00 | 1015.0 | |
| 20260508060505 | 49 | 228 | 12.0 | 15.0 | 0.00 | 0.00 | 0.00 | 1015.0 | |
| 20260508053506 | 49 | 230 | 13.0 | 17.0 | 0.00 | 0.00 | 0.00 | 1014.0 | |
| 20260508050506 | 49 | 230 | 13.0 | 17.0 | 0.00 | 0.00 | 0.00 | 1014.0 | |
| 20260508043506 | 49 | 220 | 13.0 | 17.0 | 0.00 | 0.00 | 0.00 | 1014.0 | |
| 20260508040506 | 49 | 220 | 13.0 | 17.0 | 0.00 | 0.00 | 0.00 | 1014.0 | |
| 20260508033506 | 49 | 220 | 13.0 | 17.0 | 0.00 | 0.00 | 0.00 | 1014.0 | |
| 20260508030506 | 49 | 207 | 14.0 | 19.0 | 0.00 | 0.00 | 0.00 | 1014.0 | |
| 20260508023506 | 49 | 207 | 15.0 | 19.0 | 0.00 | 0.00 | 0.00 | 1014.0 | |
| 20260508020506 | 49 | 207 | 15.0 | 19.0 | 0.00 | 0.00 | 0.00 | 1014.0 | |
| 20260508013505 | 49 | 203 | 14.0 | 18.0 | 0.00 | 0.00 | 0.00 | 1015.0 | |
| 20260508010505 | 49 | 203 | 14.0 | 18.0 | 0.00 | 0.00 | 0.00 | 1014.0 | |
| 20260508003505 | 50 | 200 | 13.0 | 17.0 | 0.00 | 0.00 | 0.00 | 1014.0 | |
| 20260508000505 | 49 | 201 | 13.0 | 17.0 | 0.00 | 0.00 | 0.00 | 1014.0 | |
| 20260507233505 | 50 | 196 | 13.0 | 16.0 | 0.00 | 0.00 | 0.00 | 1014.0 | |
| 20260507230505 | 50 | 196 | 13.0 | 16.0 | 0.00 | 0.00 | 0.00 | 1014.0 | |
| 20260507223506 | 50 | 198 | 12.0 | 15.0 | 0.00 | 0.00 | 0.00 | 1014.0 | |
| 20260507220506 | 50 | 198 | 12.0 | 15.0 | 0.00 | 0.00 | 0.00 | 1014.0 | |
| 20260507213506 | 51 | 199 | 12.0 | 15.0 | 0.00 | 0.00 | 0.00 | 1014.0 | |
| 20260507210506 | 51 | 199 | 12.0 | 15.0 | 0.00 | 0.00 | 0.00 | 1014.0 | |
| 20260507203506 | 52 | 200 | 12.0 | 15.0 | 0.00 | 0.00 | 0.00 | 1014.0 | |
| 20260507200506 | 52 | 200 | 12.0 | 15.0 | 0.00 | 0.00 | 0.00 | 1014.0 | |
| 20260507193506 | 53 | 204 | 13.0 | 15.0 | 0.00 | 0.00 | 0.00 | 1014.0 | |
| 20260507190506 | 53 | 204 | 13.0 | 15.0 | 0.00 | 0.00 | 0.00 | 1013.0 | |
| 20260507183506 | 53 | 201 | 13.0 | 15.0 | 0.00 | 0.00 | 0.00 | 1013.0 | |
| 20260507180506 | 53 | 201 | 13.0 | 15.0 | 0.00 | 0.00 | 0.00 | 1013.0 | |
| 20260507173505 | 54 | 214 | 13.0 | 15.0 | 0.00 | 0.00 | 0.00 | 1013.0 | |
| 20260507170506 | 54 | 214 | 13.0 | 15.0 | 0.00 | 0.00 | 0.00 | 1013.0 | |
| 20260507163505 | 53 | 210 | 9.0 | 11.0 | 0.00 | 0.00 | 0.00 | 1013.0 | |
| 20260507160505 | 53 | 210 | 9.0 | 11.0 | 0.00 | 0.00 | 0.00 | 1013.0 | |
| 20260507153505 | 53 | 210 | 10.0 | 12.0 | 0.00 | 0.00 | 0.00 | 1014.0 | |
| 20260507150505 | 53 | 210 | 10.0 | 12.0 | 0.00 | 0.00 | 0.00 | 1013.0 | |
| 20260507143505 | 53 | 206 | 10.0 | 12.0 | 0.00 | 0.00 | 0.00 | 1014.0 | |
| 20260507140505 | 53 | 206 | 10.0 | 12.0 | 0.00 | 0.00 | 0.00 | 1014.0 | |
| 20260507133505 | 52 | 202 | 9.0 | 11.0 | 0.00 | 0.00 | 0.00 | 1014.0 | |
| 20260507130505 | 52 | 202 | 9.0 | 11.0 | 0.00 | 0.00 | 0.00 | 1014.0 | |
| 20260507123506 | 52 | 198 | 9.0 | 11.0 | 0.00 | 0.00 | 0.00 | 1015.0 | |
| 20260507120506 | 52 | 198 | 9.0 | 11.0 | 0.00 | 0.00 | 0.00 | 1014.0 | |
| 20260507113506 | 51 | 186 | 8.0 | 9.0 | 0.00 | 0.00 | 0.00 | 1014.0 | |
| 20260507110506 | 51 | 186 | 8.0 | 9.0 | 0.00 | 0.00 | 0.00 | 1014.0 | |
| 20260507103506 | 50 | 150 | 5.0 | 6.0 | 0.00 | 0.00 | 0.00 | 1015.0 | |
| 20260507100506 | 50 | 150 | 5.0 | 6.0 | 0.00 | 0.00 | 0.00 | 1014.0 | |
| 20260507093506 | 49 | 156 | 4.0 | 6.0 | 0.00 | 0.00 | 0.00 | 1015.0 | |
| 20260507090506 | 49 | 156 | 4.0 | 6.0 | 0.00 | 0.00 | 0.00 | 1015.0 | |
| 20260507083505 | 48 | 152 | 3.0 | 6.0 | 0.00 | 0.00 | 0.00 | 1015.0 |